Location: Foligno
(42.9600°N, 12.7050°E)
Time: 11:16:00
(UTC+02:00)

ISS - Pass Details

Date: 09 May 2021
Orbit: 417 x 422 km, 51.6° (Epoch: 15 May)

Event Time Altitude Azimuth Distance (km) Brightness Sun altitude
Rises 05:11:30 0° 305° (NW) 2,371 -0.2 -7.5°
Reaches altitude 10° 05:13:48 10° 317° (NW) 1,506 -1.0 -7.1°
Maximum altitude 05:16:46 28° 19° (NNE) 825 -1.6 -6.6°
Drops below altitude 10° 05:19:45 10° 81° (E) 1,504 0.4 -6.2°
Sets 05:22:02 0° 93° (E) 2,367 1.1 -5.8°
